Weather History for KHXD - November, 2013

Change the Weather History Date:

Monday, November 25, 2013

  Actual Average Record
Temperature  
Mean Temperature 44 °F -  
Max Temperature 51 °F 68 °F 80 °F (1986)
Min Temperature 37 °F 45 °F 27 °F (1956)
Degree Days  
Heating Degree Days 21    
Moisture  
Dew Point 33 °F    
Average Humidity 67    
Maximum Humidity 94    
Minimum Humidity 42    
Precipitation  
Precipitation 0.00 in - - ()
Sea Level Pressure  
Sea Level Pressure 30.40 in    
Wind  
Wind Speed 12 mph (North)    
Max Wind Speed 17 mph    
Max Gust Speed 29 mph    
Visibility 10 miles    
Events      
Averages and records for this station are not official NWS values.
T = Trace of Precipitation, MM = Missing Value Source: NWS Daily Summary

Daily Weather History Graph

Daily Weather History Graph

Search for Another Location

Airport or City:

Trip Planner

Search our weather history database for the weather conditions in past years. The results will help you decide how hot, cold, wet, or windy it might be!

Date:

Astronomy

Nov. 25, 2013 Rise Set
Actual Time 7:00 AM EST 5:18 PM EST
Civil Twilight 6:34 AM EST 5:45 PM EST
Nautical Twilight 6:04 AM EST 6:15 PM EST
Astronomical Twilight 5:35 AM EST 6:44 PM EST
Moon No Moon Rise 12:30 PM EST (11/25)
Length of Visible Light 11h 10m
Length of Day
10h 17m
Waning Gibbous, 51% of the Moon is Illuminated
Nov 25
Waning Gibbous
Nov 25
Last Quarter
Dec 2
New
Dec 9
First Quarter
Dec 17
Full

Hourly Weather History & Observations

Time (EST) Temp. Windchill Dew Point Humidity Pressure Visibility Wind Dir Wind Speed Gust Speed Precip Events Conditions
12:15 AM 39.2 °F 32.0 °F 21.2 °F 49% 30.49 in 10.0 mi North 11.5 mph 17.3 mph 0.00 in   Clear
12:35 AM 39.2 °F 31.6 °F 19.4 °F 45% 30.49 in 10.0 mi North 12.7 mph 19.6 mph 0.00 in   Clear
12:55 AM 39.2 °F 31.6 °F 19.4 °F 45% 30.49 in 10.0 mi North 12.7 mph 21.9 mph 0.00 in   Clear
1:15 AM 39.2 °F 31.6 °F 19.4 °F 45% 30.48 in 10.0 mi North 12.7 mph 18.4 mph 0.00 in   Clear
1:35 AM 39.2 °F 32.0 °F 17.6 °F 42% 30.48 in 10.0 mi North 11.5 mph - 0.00 in   Clear
1:55 AM 39.2 °F 32.0 °F 19.4 °F 45% 30.48 in 10.0 mi North 11.5 mph 19.6 mph 0.00 in   Clear
2:15 AM 37.4 °F 30.3 °F 19.4 °F 48% 30.49 in 10.0 mi North 10.4 mph 16.1 mph 0.00 in   Clear
2:35 AM 37.4 °F 29.3 °F 19.4 °F 48% 30.49 in 10.0 mi North 12.7 mph 18.4 mph 0.00 in   Clear
2:55 AM 37.4 °F 29.3 °F 19.4 °F 48% 30.49 in 10.0 mi North 12.7 mph 16.1 mph 0.00 in   Clear
3:15 AM 37.4 °F 29.3 °F 19.4 °F 48% 30.49 in 10.0 mi North 12.7 mph 18.4 mph 0.00 in   Clear
3:35 AM 37.4 °F 29.3 °F 17.6 °F 45% 30.48 in 10.0 mi North 12.7 mph 18.4 mph 0.00 in   Clear
3:55 AM 37.4 °F 29.3 °F 19.4 °F 48% 30.47 in 10.0 mi North 12.7 mph 20.7 mph 0.00 in   Clear
4:15 AM 37.4 °F 28.2 °F 17.6 °F 45% 30.47 in 10.0 mi North 16.1 mph 20.7 mph 0.00 in   Clear
4:35 AM 37.4 °F 29.3 °F 21.2 °F 52% 30.47 in 10.0 mi North 12.7 mph 19.6 mph 0.00 in   Clear
4:55 AM 37.4 °F 28.5 °F 21.2 °F 52% 30.47 in 10.0 mi North 15.0 mph 23.0 mph 0.00 in   Clear
5:15 AM 37.4 °F 29.3 °F 21.2 °F 52% 30.46 in 10.0 mi North 12.7 mph 23.0 mph 0.00 in   Clear
5:35 AM 37.4 °F 28.9 °F 21.2 °F 52% 30.46 in 10.0 mi North 13.8 mph 23.0 mph 0.00 in   Clear
7:50 AM 37.4 °F 27.8 °F 24.8 °F 60% 30.47 in 10.0 mi North 17.3 mph 23.0 mph N/A   Clear
8:50 AM 41.0 °F 34.3 °F 26.6 °F 57% 30.47 in 10.0 mi North 11.5 mph 16.1 mph N/A   Clear
9:50 AM 44.6 °F 38.8 °F 32.0 °F 61% 30.48 in 10.0 mi North 11.5 mph 16.1 mph N/A   Clear
12:50 PM 51.8 °F - 44.6 °F 76% 30.40 in 10.0 mi NNE 9.2 mph 26.5 mph N/A   Overcast
1:50 PM 48.2 °F - 42.8 °F 82% 30.48 in 10.0 mi NNE 13.8 mph 28.8 mph N/A   Overcast
2:50 PM 48.2 °F - 42.8 °F 82% 30.38 in 10.0 mi NNE 15.0 mph 26.5 mph N/A   Overcast
3:50 PM 48.2 °F - 42.8 °F 82% 30.37 in 10.0 mi NNE 17.3 mph 23.0 mph N/A   Overcast
4:50 PM 48.2 °F - 42.8 °F 82% 30.36 in 10.0 mi NNE 15.0 mph 20.7 mph N/A   Overcast
5:50 PM 48.2 °F - 42.8 °F 82% 30.35 in 10.0 mi North 12.7 mph 18.4 mph N/A   Overcast
6:50 PM 50.0 °F - 44.6 °F 82% 30.35 in 10.0 mi North 10.4 mph 17.3 mph N/A   Overcast
7:50 PM 51.8 °F - 44.6 °F 76% 30.33 in 10.0 mi NNE 11.5 mph 18.4 mph N/A   Overcast
8:15 PM 50.0 °F - 44.6 °F 82% 30.33 in 10.0 mi North 13.8 mph - 0.00 in   Overcast
8:35 PM 51.8 °F - 44.6 °F 76% 30.31 in 10.0 mi North 9.2 mph - 0.00 in   Overcast
8:55 PM 50.0 °F - 44.6 °F 82% 30.31 in 10.0 mi North 11.5 mph - 0.00 in   Overcast
9:15 PM 50.0 °F - 46.4 °F 87% 30.32 in 5.0 mi North 5.8 mph - 0.00 in   Light Drizzle
9:35 PM 48.2 °F - 46.4 °F 93% 30.31 in 5.0 mi North 11.5 mph - 0.00 in   Light Drizzle
9:55 PM 48.2 °F - 46.4 °F 93% 30.29 in 5.0 mi North 10.4 mph - 0.00 in   Mostly Cloudy
10:15 PM 50.0 °F - 46.4 °F 87% 30.27 in 10.0 mi North 11.5 mph 17.3 mph 0.00 in   Mostly Cloudy
10:35 PM 50.0 °F - 48.2 °F 94% 30.27 in 10.0 mi North 10.4 mph - 0.00 in   Scattered Clouds
10:55 PM 50.0 °F - 46.4 °F 87% 30.26 in 10.0 mi North 9.2 mph 17.3 mph 0.00 in   Scattered Clouds
11:15 PM 50.0 °F - 48.2 °F 94% 30.25 in 10.0 mi North 10.4 mph - 0.00 in   Scattered Clouds
11:35 PM 50.0 °F - 48.2 °F 94% 30.23 in 10.0 mi North 8.1 mph - 0.00 in   Partly Cloudy
11:55 PM 51.8 °F - 48.2 °F 88% 30.22 in 10.0 mi North 8.1 mph - 0.00 in   Clear